Location: *
(58.7167°N, 26.1833°E)
Time: 15:40:53
(UTC+00:00)

ERS-2 - Pass Details

Date: 25 August 2019
Orbit: 495 x 500 km, 98.5° (Epoch: 23 September)

Event Time Altitude Azimuth Distance (km) Brightness Sun altitude
Exits shadow 22:07:54 75° 150° (SSE) 522 1.9 -20.6°
Maximum altitude 22:08:12 87° 70° (ENE) 507 2.0 -20.6°
Drops below altitude 10° 22:11:53 10° 343° (NNW) 1,713 5.9 -20.7°
Sets 22:13:58 0° 343° (NNW) 2,600 7.1 -20.7°
